COSMOS 2024 (ETALON 2)

Last updated on Jan. 23, 2021, 7:38 a.m. UTC

1 20026U 89039C   21022.96270914 -.00000037  00000-0  00000-0 0  9995
2 20026  65.5295  17.6832 0018334 220.4903   8.0565  2.13204414246478
UTC
Height (km)
Latitude
Longitude
Inclination
Orbital Period
UTC large
Height (km)
Speed (km/s)
/
Latitude / Longitude
Inclination (degrees)
Orbital Period (minutes)
Azimuth
Elevation
Range (km)
Doppler Factor
iOS Compass Heading
iOS Angle

Next 30 passes for location: Hong Kong

Rise time Rise Azimuth (degrees) Set time Set Azimuth (degrees) Duration Max altitude (degrees)

No matching passes for this satellites